Main page
Satellite images Climate Cyclones Lightning AirportsFAQ Languages Contact Newsletter About
Weather : Europe Africa North America South America Asia Australia-Oceania Others

, Nan, Nan Nakhon Airport

48331

latitude: , longitude: Thailand, elevation: 18-46N m


METAR: VTCN 162300Z 03001KT CAVOK 16/16 Q1019 NOSIG